Find Starlink 33566

NORAD ID: 62100 Int'l Des: 2024-220 Owner: SPXS Country: US Constellation: starlink operational
LEOCIRCULAR

Current View

Loading 3D Globe...

About Starlink 33566

Starlink 33566 (NORAD 62100) is a starlink constellation satellite (v2 mini) launched Nov 25, 2024 by SPXS of US. It operates in LEO, CIRCULAR orbit with a mass of 530.00 kg.

About Starlink 33566

Description loading...

Upcoming Passes

Passes for default location (London). Set your location on the main map for personalized predictions.

Altitude History

Loading altitude history...

Two-Line Element Set

1 62100U 24220N 26171.42973240 .00009303 00000-0 34703-3 0 9992
2 62100 43.0014 330.6147 0001409 257.6590 102.4104 15.27590941 89074
Epoch: Jun 20, 2026 • Age: 30 hours

Current Status

Altitude 492.8 km
Velocity 7.62 km/s
Sub-Earth Point -36.58°S, 123.5°E
Launch Date Nov 25, 2024
Age 1.5 years
Type internet

Technical Details

Classification Payload
Mass 530.00 kg
Dry Mass 500.00 kg
Total Mass 530.00 kg
Length 0.30 m
Diameter 4.10 m
Span 29.00 m
Shape Box + pan
Manufacturer SPXS
Bus Type Starlink V2MO
Phase Status In Orbit
Owner/State SPXS/US

Most Searched